User: anonymous
Location: Caltech
(34.1382°N, 118.1253°W)
Time: 19:13:32
(UTC-07:00)
Language:

ERBS - Orbit

View from above orbital plane
View from above orbital plane
View from above satellite
View from above satellite

Ground track
Ground track

The orbit data is extracted from the following two-line orbital elements,

1 15354U 84108B   14241.34835880  .00007353  00000-0  26736-3 0  5643
2 15354 057.0128 185.8303 0015181 354.6794 005.4091 15.29209830640812
Epoch (UTC): 29 August 2014 08:21:38
Eccentricity: 0.0015181
inclination: 57.0128°
perigee height: 468 km
apogee height: 488 km
right ascension of ascending node: 185.8303°
argument of perigee: 354.6794°
revolutions per day: 15.29209830
mean anomaly at epoch: 5.4091°
orbit number at epoch: 64081

The dashed part of the orbit path shows where the satellite is in the earth's shadow,  

DLR